Location: A�t Lahcen
(32.8243°N, 5.4246°W)
Time: 01:52:21
(UTC+00:00)

STARLINK-2127 - Pass Details

Date: 27 January 2021
Orbit: 379 x 381 km, 53.1° (Epoch: 26 February)

Event Time Altitude Azimuth Distance (km) Brightness Sun altitude
Exits shadow 04:32:44 - 77° (ENE) 1,891 7.2 -35.1°
Enters shadow 05:34:10 -57° 226° (SW) 11,162 10.2 -22.2°
Maximum altitude 06:05:09 39° 317° (NW) 586 3.3 -15.8°
